Home   Weather   Guimarães   Past weeks

Flag for Portugal Past Weather in Guimarães, Portugal — Yesterday and Last 2 Weeks

Now
56 °F

Refreshingly cool.


Feels Like: 55 °F
Forecast: 40 / 64 °F
Wind: 7 mph from East

Location: Porto / Pedras Rubras

Current Time: Dec 9, 2016 at 11:42:32 am

Latest Report: Dec 9, 2016 at 10:00 am


Visibility: N/A

Pressure: 30.39 "Hg

Humidity: 57%

Dew Point: 41 °F

Location of GuimarãesLocation

Past Weather in Guimarães — Graph

°F

Guimarães Temperature Yesterday

Maximum temperature yesterday: 62 °F (at 2:00 pm)
Minimum temperature yesterday: 51 °F (at 8:00 am)
Average temperature yesterday: 55 °F

High & Low Weather Summary for the Past Weeks

 TemperatureHumidityPressure
High69 °F (Dec 4, 2:00 pm)90% (Nov 24, 8:00 pm)30.41 "Hg (Nov 24, 8:00 pm)
Low43 °F (Nov 24, 10:00 am)49% (Dec 1, 12:00 pm)29.50 "Hg (Nov 24, 8:00 pm)
Average55 °F68%29.97 "Hg
* Reported Nov 24 10:00 am — Dec 9 10:00 am, Guimarães, Weather by CustomWeather, © 2016

Note: Actual official high and low records may vary slightly from our data, if they occured in-between our weather recording intervals... More about our weather records

Advertising

Guimarães Weather History for the Previous 24 Hours

Scroll right to see more
 ConditionsComfort  
Time TempWeatherWind HumidityBarometerVisibility
10:00 am
Fri, Dec 9
56 °FRefreshingly cool.7 mph57%30.39 "HgN/A
9:00 am54 °FCool.7 mph61%30.38 "HgN/A
8:00 am52 °FCool.7 mph64%30.38 "HgN/A
7:00 am52 °FCool.6 mph65%30.37 "HgN/A
6:00 am52 °FCool.7 mph63%30.36 "HgN/A
5:00 am51 °FCool.5 mph65%30.36 "HgN/A
3:00 am51 °FCool.7 mph64%30.37 "HgN/A
2:00 am51 °FCool.6 mph64%30.38 "HgN/A
1:00 am52 °FCool.6 mph64%30.39 "HgN/A
12:00 am53 °FCool.7 mph62%30.39 "HgN/A
11:00 pm
Thu, Dec 8
52 °FCool.6 mph63%30.40 "HgN/A
10:00 pm52 °FCool.6 mph63%30.40 "HgN/A
9:00 pm53 °FCool.6 mph62%30.40 "HgN/A
7:00 pm54 °FCool.5 mph61%30.38 "HgN/A
6:00 pm56 °FRefreshingly cool.5 mph60%30.37 "HgN/A
3:00 pm62 °FRefreshingly cool.3 mph53%30.34 "HgN/A
2:00 pm62 °FRefreshingly cool.5 mph50%30.34 "HgN/A
1:00 pm61 °FRefreshingly cool.5 mph53%30.35 "HgN/A
11:00 am59 °FRefreshingly cool.5 mph60%30.40 "HgN/A
Weather by CustomWeather, © 2016

See weather overviewHow to use our weather pages